FW5317 Weather Reports


time (UTC)temp
F
wind
direction
speed
knots
gust
knots
rain 1hr
in
rain 24hr
in
rain mn
in
humidity
%
barometer
mb
20260504050016 53 139 0.0 1.7 0.00 0.00 0.00 56 1004.8
20260504044516 53 144 1.7 2.6 0.00 0.00 0.00 55 1004.8
20260504043014 54 181 0.0 1.7 0.00 0.00 0.00 52 1005.0
20260504041514 52 181 0.0 1.7 0.00 0.00 0.00 56 1005.1
20260504040013 51 184 0.9 2.6 0.00 0.00 0.00 62 1005.3
20260504034523 55 184 0.0 0.0 0.00 0.00 0.00 55 1005.6
20260504033022 56 184 0.0 2.6 0.00 0.00 0.00 50 1005.8
20260504031512 55 277 0.0 0.9 0.00 0.00 0.00 51 1005.9
20260504030011 55 294 0.0 0.9 0.00 0.00 0.00 53 1005.9
20260504024533 56 294 0.0 0.0 0.00 0.00 0.00 52 1005.9
20260504023010 58 294 0.0 0.0 0.00 0.00 0.00 50 1005.7
20260504021510 58 294 0.0 0.9 0.00 0.00 0.00 47 1005.6
20260504020012 58 293 0.0 1.7 0.00 0.00 0.00 47 1005.5
20260504014509 59 292 0.0 1.7 0.00 0.00 0.00 48 1005.6
20260504013012 60 292 0.0 1.7 0.00 0.00 0.00 47 1005.5
20260504011508 62 287 0.9 3.5 0.00 0.00 0.00 46 1005.4
20260504010007 64 296 1.7 4.3 0.00 0.00 0.00 45 1005.4
20260504004510 67 296 2.6 8.7 0.00 0.00 0.00 40 1005.3
20260504003005 69 304 7.0 10.4 0.00 0.00 0.00 36 1005.2
20260504001504 70 304 8.7 12.2 0.00 0.00 0.00 34 1005.2
20260504000004 71 346 9.6 13.9 0.00 0.00 0.00 33 1005.1
20260503234502 72 298 7.8 13.9 0.00 0.00 0.00 37 1005.0
20260503233004 72 315 10.4 14.8 0.00 0.00 0.00 34 1005.0
20260503231501 72 319 8.7 14.8 0.00 0.00 0.00 36 1005.1
20260503230002 73 11 7.8 15.6 0.00 0.00 0.00 36 1005.0
20260503224600 73 313 7.8 15.6 0.00 0.00 0.00 36 1005.3
20260503223100 73 283 9.6 17.4 0.00 0.00 0.00 34 1005.1
20260503221559 73 297 13.0 18.2 0.00 0.00 0.00 33 1005.1
20260503214606 75 311 10.4 17.4 0.00 0.00 0.00 33 1005.0
20260503213057 75 296 6.1 19.1 0.00 0.00 0.00 28 1005.1
20260503211604 75 28 3.5 15.6 0.00 0.00 0.00 30 1005.0
20260503210055 76 9 7.8 16.5 0.00 0.00 0.00 29 1005.1
20260503204554 75 321 7.0 15.6 0.00 0.00 0.00 31 1005.1
20260503203050 76 321 8.7 17.4 0.00 0.00 0.00 31 1005.2
20260503201548 75 28 6.1 20.9 0.00 0.00 0.00 31 1005.5
20260503200048 75 310 11.3 17.4 0.00 0.00 0.00 31 1005.6
20260503194549 75 303 8.7 18.2 0.00 0.00 0.00 33 1005.5
20260503193054 75 336 6.1 20.0 0.00 0.00 0.00 33 1005.5
20260503191545 75 311 9.6 19.1 0.00 0.00 0.00 33 1005.5
20260503190052 75 281 12.2 22.6 0.00 0.00 0.00 35 1005.6
20260503184555 74 291 13.0 17.4 0.00 0.00 0.00 33 1005.6
20260503183041 74 281 14.8 23.5 0.00 0.00 0.00 35 1005.5
20260503181539 74 294 13.9 21.7 0.00 0.00 0.00 34 1005.5
20260503180038 73 5 13.9 20.9 0.00 0.00 0.00 34 1005.6
20260503174549 73 290 10.4 20.9 0.00 0.00 0.00 37 1005.8
20260503173032 72 272 12.2 20.0 0.00 0.00 0.00 38 1006.0
20260503171528 71 291 13.0 17.4 0.00 0.00 0.00 39 1006.2
20260503150104 61 252 9.6 18.2 0.00 0.00 0.00 50 1007.1
20260503081503 53 204 5.2 8.7 0.00 0.00 0.00 52 1012.1
20260503071556 53 204 6.1 9.6 0.00 0.00 0.00 54 1012.4